Back to catalog

STARLINK-33769

AliveCommunicationsVLEO
NORAD 63773·PAYLOAD·🇺🇸 United States

Launched Apr 29, 2025 from Cape Canaveral Space Force Station

Loading…

Next Passes (next 24 hours)

TLE

FreshSource: CelesTrak SupGP

Epoch: Sep 14, 2026, 21:19 UTC

1 63773C 25089X   26257.88868056  .00057382  00000+0  20785-2 0  2576
2 63773  43.0009  56.4685 0001627 276.3368 175.5597 15.27546994    11

Track STARLINK-33769 in real time with AllMySat

Download on the App Store